Temp
21 22 22 21 21 20 20 20 20 20 20 20 20 20 20 20 20 19 19 19 19 19 19 19 19 19 20 19 19 19 19 20 20 20 20 20 20 19 19 19 19 18 18
22 22 22 22 21 20 20 20 20 20 20 20 19 19 19 20 20 19 19 19 19 19 19 19 19 19 19 20 19 20 20 19 19 20 20 19 20 19 19 19 18 18 17
23 22 22 22 21 21 20 21 20 20 19 19 19 19 19 19 19 19 19 19 19 19 19 19 19 19 19 19 19 19 20 19 19 19 19 19 19 19 19 18 18 18 17
23 22 22 22 21 21 21 20 19 18 18 19 19 19 19 19 19 19 19 19 19 19 19 19 19 19 19 19 19 19 19 19 19 19 19 18 18 18 18 18 18 17 16
23 23 22 22 21 20 20 18 17 18 18 18 17 18 18 19 19 19 19 19 19 19 19 19 19 19 19 19 19 19 19 19 19 19 19 18 18 18 18 18 17 16 15
23 23 22 21 21 20 19 19 19 18 17 18 18 18 18 18 19 19 19 19 20 20 19 19 19 19 19 19 18 19 18 18 18 18 18 18 18 18 18 17 17 15 16
21 21 21 20 20 20 20 19 19 19 18 19 19 19 18 18 19 19 19 19 19 19 19 19 19 19 19 19 19 18 18 18 18 18 18 18 18 18 18 17 16 16 16
21 20 20 20 20 19 19 19 19 18 18 18 18 18 18 18 19 19 19 18 18 19 18 19 19 19 19 18 19 19 18 18 18 18 18 18 18 17 17 16 16 15 15
20 20 19 19 18 18 18 17 18 18 19 19 19 19 18 19 19 18 18 18 19 18 19 19 19 19 19 19 18 18 18 18 18 18 17 17 17 17 16 16 15 15 14
19 18 18 17 18 18 18 18 18 18 19 19 19 19 20 20 19 19 18 18 18 18 19 18 18 18 18 18 18 18 18 18 18 18 17 16 16 16 16 15 15 15 15
17 17 17 17 17 17 18 18 18 18 18 18 18 19 19 19 20 19 19 18 17 17 17 19 19 18 18 18 17 17 17 18 18 16 15 15 15 15 14 14 14 14 14
17 16 16 16 17 17 17 17 16 16 16 16 17 17 17 16 17 18 18 18 18 16 17 18 18 18 18 18 17 18 17 16 16 15 15 14 14 13 13 13 13 13 13
16 16 16 16 16 17 16 16 16 15 14 12 11 11 12 11 12 14 16 16 17 17 16 16 17 17 17 17 17 17 16 16 16 15 15 12 11 10 9 10 12 12 12
16 15 15 16 16 16 15 15 15 14 12 10 9 10 11 12 13 14 13 15 14 15 15 15 16 16 16 16 16 16 15 15 14 11 11 9 8 9 9 10 10 11 12
15 15 15 15 15 15 15 14 13 11 8 9 9 9 10 12 12 13 14 14 14 14 15 16 15 16 16 15 15 14 13 13 12 11 9 9 9 9 8 9 11 11 12
15 14 14 14 14 13 13 12 11 8 8 8 8 8 9 9 11 13 14 14 14 14 14 15 15 14 15 14 14 13 12 12 11 10 9 8 9 8 9 10 11 12 11
15 14 14 13 13 12 12 11 10 9 9 8 8 9 8 9 10 10 11 12 11 14 14 13 13 12 12 12 11 10 10 9 9 8 9 8 8 8 10 11 11 11 11
14 14 13 13 12 12 11 11 10 10 10 9 8 8 8 8 9 9 9 10 10 10 9 10 10 10 9 9 9 9 9 9 10 9 8 8 9 10 10 11 11 11 11
13 13 13 12 12 12 11 11 10 10 10 9 8 8 9 8 8 8 9 9 8 9 9 9 9 10 9 9 9 9 9 9 9 8 9 9 10 10 10 10 10 10 10
13 13 13 12 12 12 11 11 11 11 10 10 9 9 10 10 9 8 8 9 8 8 8 8 8 8 8 8 9 9 10 10 9 10 10 10 10 10 10 10 10 10 10
13 13 13 12 12 12 11 11 11 11 11 10 10 10 10 11 11 11 11 10 10 10 10 10 10 10 9 9 10 10 10 10 10 10 10 9 9 10 10 10 10 10 10
13 13 13 12 12 12 12 12 12 12 11 11 10 10 11 12 12 12 11 11 11 10 10 10 10 10 9 9 10 10 10 10 10 9 9 9 9 9 10 10 10 10 9
13 13 13 13 13 13 12 12 12 12 11 11 11 11 11 11 12 12 11 11 11 11 11 10 10 10 10 10 10 10 9 9 9 9 9 9 9 10 10 10 9 9 8
14 14 14 14 14 14 13 13 12 12 12 12 12 12 12 11 11 12 12 11 11 11 10 10 10 10 10 10 10 9 9 9 9 9 9 9 9 9 9 9 9 9 8
14 14 14 14 14 14 14 14 14 13 13 12 13 13 12 11 11 11 11 11 11 10 10 9 9 10 10 9 9 9 9 9 9 9 9 9 9 9 9 9 8 8 7
14 14 14 14 15 14 14 14 14 14 14 13 13 13 13 13 12 11 11 11 11 10 10 9 9 9 9 9 9 9 9 9 9 8 8 8 8 8 8 8 8 7 7
Height
1524 1527 1530 1532 1535 1538 1540 1542 1544 1546 1548 1549 1550 1551 1551 1551 1553 1554 1555 1557 1558 1559 1560 1561 1562 1563 1563 1565 1566 1567 1567 1566 1565 1565 1564 1564 1563 1562 1561 1561 1560 1560 1560
1520 1524 1526 1530 1532 1534 1536 1538 1541 1542 1544 1546 1546 1546 1547 1548 1549 1550 1551 1552 1553 1554 1555 1557 1558 1559 1559 1560 1561 1562 1563 1563 1561 1560 1560 1559 1560 1559 1558 1558 1558 1558 1558
1517 1520 1523 1526 1528 1530 1533 1534 1536 1539 1540 1542 1544 1544 1543 1544 1545 1545 1545 1547 1548 1549 1551 1552 1553 1554 1555 1556 1556 1556 1557 1557 1556 1556 1555 1555 1556 1555 1554 1556 1556 1556 1556
1514 1517 1519 1522 1524 1529 1528 1530 1533 1535 1536 1539 1540 1539 1539 1539 1540 1540 1540 1541 1542 1542 1544 1546 1547 1548 1549 1550 1551 1551 1552 1552 1551 1551 1551 1551 1550 1552 1553 1554 1554 1554 1554
1512 1513 1516 1519 1520 1524 1525 1521 1519 1523 1524 1529 1529 1533 1532 1532 1531 1532 1533 1533 1535 1536 1536 1538 1540 1541 1543 1544 1545 1546 1546 1546 1546 1546 1546 1546 1547 1548 1548 1549 1549 1550 1551
1507 1510 1513 1516 1518 1520 1521 1522 1521 1521 1518 1517 1513 1518 1514 1522 1524 1524 1525 1525 1525 1526 1528 1530 1532 1535 1536 1537 1538 1539 1541 1541 1541 1541 1541 1540 1542 1543 1544 1545 1545 1546 1548
1508 1509 1509 1509 1512 1515 1515 1515 1516 1516 1516 1515 1516 1516 1514 1514 1515 1516 1517 1517 1517 1517 1519 1521 1523 1526 1529 1530 1531 1532 1533 1534 1535 1536 1536 1535 1536 1538 1539 1540 1541 1543 1544
1502 1504 1505 1507 1507 1508 1508 1508 1508 1508 1510 1510 1509 1507 1506 1506 1507 1508 1508 1509 1509 1509 1510 1512 1514 1518 1520 1523 1525 1525 1525 1526 1527 1528 1530 1532 1532 1533 1534 1536 1537 1538 1540
1500 1501 1502 1502 1503 1503 1504 1503 1502 1501 1500 1500 1499 1498 1497 1496 1497 1497 1499 1499 1498 1498 1500 1502 1504 1507 1511 1514 1516 1517 1518 1519 1520 1522 1524 1525 1526 1528 1529 1529 1530 1532 1535
1495 1497 1498 1500 1501 1501 1500 1499 1497 1495 1493 1491 1488 1486 1484 1483 1485 1485 1486 1486 1486 1487 1489 1491 1494 1497 1501 1505 1508 1509 1511 1513 1514 1515 1516 1518 1521 1522 1523 1523 1525 1527 1531
1494 1495 1497 1499 1499 1499 1497 1495 1492 1488 1484 1480 1476 1473 1470 1469 1471 1471 1473 1473 1474 1476 1477 1480 1484 1488 1492 1496 1499 1497 1501 1507 1507 1508 1511 1513 1515 1518 1520 1522 1524 1526 1529
1494 1495 1497 1498 1497 1497 1495 1492 1488 1483 1477 1470 1463 1458 1455 1453 1453 1455 1457 1459 1462 1466 1469 1471 1475 1480 1483 1487 1490 1493 1496 1498 1498 1498 1502 1504 1510 1514 1517 1521 1523 1525 1527
1494 1495 1497 1497 1497 1495 1493 1490 1485 1478 1471 1462 1455 1449 1445 1443 1440 1441 1443 1446 1450 1453 1458 1463 1467 1471 1474 1478 1482 1485 1489 1490 1492 1487 1490 1493 1503 1509 1513 1518 1524 1524 1525
1492 1494 1496 1496 1495 1493 1490 1487 1482 1475 1469 1461 1453 1446 1440 1436 1434 1434 1434 1438 1440 1443 1448 1456 1460 1464 1468 1471 1476 1479 1480 1482 1487 1493 1486 1489 1501 1508 1514 1516 1524 1530 1533
1491 1493 1494 1494 1492 1491 1489 1486 1481 1476 1471 1464 1455 1447 1438 1433 1430 1429 1430 1432 1435 1438 1443 1448 1454 1457 1462 1466 1470 1473 1477 1480 1488 1485 1501 1494 1498 1511 1517 1521 1527 1529 1534
1490 1491 1491 1492 1491 1490 1489 1486 1483 1480 1476 1470 1461 1452 1445 1437 1428 1426 1428 1430 1432 1435 1439 1443 1448 1453 1457 1462 1465 1470 1476 1478 1489 1495 1495 1510 1509 1509 1519 1528 1529 1530 1533
1489 1489 1490 1492 1491 1491 1490 1488 1486 1484 1480 1473 1466 1457 1451 1444 1437 1430 1427 1429 1431 1433 1436 1441 1445 1451 1456 1460 1464 1471 1475 1482 1490 1496 1501 1507 1516 1518 1521 1530 1529 1533 1533
1488 1490 1491 1492 1492 1492 1491 1490 1489 1487 1482 1477 1471 1464 1458 1452 1447 1444 1440 1438 1437 1439 1440 1440 1445 1453 1460 1463 1470 1475 1480 1485 1491 1498 1504 1511 1519 1520 1524 1526 1528 1530 1533
1487 1489 1491 1492 1492 1492 1492 1492 1491 1489 1485 1482 1479 1473 1467 1462 1458 1455 1451 1450 1451 1452 1453 1444 1456 1461 1469 1473 1476 1482 1488 1491 1495 1502 1511 1518 1522 1524 1525 1527 1528 1529 1531
1488 1489 1489 1490 1491 1492 1492 1492 1492 1490 1488 1487 1484 1481 1478 1475 1472 1471 1468 1466 1467 1468 1467 1470 1473 1474 1483 1486 1489 1492 1497 1501 1504 1509 1514 1519 1521 1522 1524 1525 1528 1529 1531
1485 1487 1487 1488 1489 1491 1491 1491 1491 1490 1490 1489 1488 1485 1485 1483 1482 1482 1482 1482 1482 1481 1483 1484 1487 1488 1491 1491 1498 1499 1502 1505 1508 1511 1515 1518 1521 1522 1524 1525 1526 1529 1529
1482 1484 1485 1486 1488 1489 1490 1490 1490 1490 1490 1490 1490 1489 1489 1489 1489 1489 1488 1489 1490 1490 1490 1493 1494 1495 1496 1499 1501 1503 1506 1507 1510 1513 1515 1519 1519 1521 1522 1524 1526 1527 1529
1479 1480 1482 1484 1486 1487 1488 1489 1490 1490 1489 1490 1491 1491 1491 1491 1492 1493 1493 1494 1494 1495 1496 1497 1497 1498 1499 1501 1504 1505 1507 1507 1511 1514 1516 1518 1518 1519 1522 1525 1527 1527 1529
1477 1478 1480 1482 1484 1485 1486 1488 1489 1489 1489 1490 1491 1491 1492 1493 1494 1495 1495 1495 1496 1497 1497 1499 1499 1500 1500 1502 1504 1506 1507 1510 1512 1514 1515 1516 1517 1520 1522 1524 1526 1528 1529
1475 1477 1479 1481 1482 1483 1484 1486 1487 1488 1489 1490 1491 1491 1492 1493 1494 1495 1496 1497 1497 1498 1498 1499 1499 1500 1501 1503 1504 1507 1509 1509 1510 1511 1513 1515 1517 1519 1520 1522 1525 1526 1526
1473 1476 1478 1480 1481 1481 1482 1482 1483 1485 1487 1489 1490 1491 1492 1492 1492 1494 1496 1496 1497 1498 1499 1500 1501 1502 1503 1504 1505 1507 1507 1507 1508 1510 1513 1515 1516 1518 1520 1522 1524 1525 1525
Wind_Speed
31 30 31 32 32 32 32 34 32 31 29 26 25 24 21 20 20 22 20 17 17 17 19 19 19 18 16 14 14 15 19 17 18 15 12 13 13 14 10 8 5 7 8
30 27 30 31 31 32 33 33 31 31 30 30 28 28 26 25 21 21 23 22 21 19 21 22 22 18 22 20 21 21 19 19 20 19 18 18 12 11 10 7 7 7 7
32 28 25 29 32 33 31 30 30 31 30 29 31 29 29 29 28 26 25 25 24 22 22 24 24 23 25 24 22 19 18 17 18 18 16 14 11 11 12 9 10 9 8
33 29 28 25 27 29 30 28 23 26 29 30 30 33 33 30 30 28 26 27 27 27 26 26 27 25 25 21 21 20 17 18 17 17 16 16 15 13 13 12 11 10 8
31 27 26 21 20 23 26 25 25 34 26 28 28 34 33 33 33 33 32 31 32 32 32 30 30 29 27 25 24 22 21 21 19 18 18 18 18 17 17 13 12 10 11
28 23 22 19 20 23 24 24 21 23 23 15 28 32 34 30 32 33 33 33 31 32 35 34 32 30 29 28 27 25 24 22 21 20 20 21 21 19 16 15 14 14 14
20 21 24 24 24 24 24 24 24 23 21 23 27 27 31 30 30 33 33 31 32 34 34 34 33 31 30 29 28 26 25 25 24 22 22 22 22 19 17 14 14 14 14
23 22 21 20 20 22 22 21 21 20 20 24 29 31 33 34 33 32 32 36 36 35 36 35 35 33 31 28 30 29 28 27 26 25 23 22 19 17 15 12 13 16 15
22 23 20 19 18 18 21 22 22 24 26 28 29 31 32 33 33 37 39 41 38 39 40 39 39 38 36 34 32 33 31 27 27 25 25 23 21 18 16 16 18 17 18
15 11 11 14 16 14 14 17 19 22 25 29 32 35 37 38 37 38 37 40 43 40 35 39 39 40 41 36 34 36 33 31 29 28 27 24 21 18 17 14 18 20 20
10 9 10 9 8 10 12 16 20 23 26 29 33 36 40 42 42 42 43 44 42 34 38 37 36 36 36 38 34 33 35 33 33 30 26 23 20 20 20 19 18 15 18
9 8 10 7 4 5 8 13 17 21 25 28 31 33 33 35 39 43 43 44 45 44 39 36 36 33 32 35 34 32 33 33 35 33 29 25 27 26 22 18 18 18 13
11 11 9 5 1 6 11 16 20 23 26 25 23 22 22 21 23 22 23 27 34 40 43 35 30 28 26 25 27 28 29 30 34 37 33 35 32 29 26 24 17 11 12
13 14 10 6 5 9 15 19 20 26 27 28 26 21 18 17 16 15 14 15 17 24 35 33 27 25 22 20 17 22 27 30 31 25 40 35 32 29 25 18 15 14 12
18 16 10 5 7 11 15 19 24 25 29 32 31 29 26 17 11 13 17 14 12 18 24 26 22 20 19 18 21 27 25 25 27 38 29 33 31 20 17 14 11 16 11
20 13 8 6 8 11 15 19 21 23 22 23 23 25 25 26 14 7 11 11 17 18 20 22 23 22 22 24 27 30 29 34 37 34 31 24 24 24 18 12 13 13 12
18 12 9 8 9 11 13 17 20 21 25 26 23 24 22 18 17 12 9 14 22 23 24 28 27 30 34 34 37 41 41 35 31 30 28 24 18 14 13 12 10 9 9
15 10 8 10 9 8 10 13 14 15 22 28 32 28 23 18 12 13 20 23 28 30 36 40 42 42 43 43 41 40 39 37 33 27 22 17 12 13 13 12 9 9 5
16 12 11 12 10 7 5 6 9 11 16 20 23 30 32 26 21 21 22 33 38 39 40 42 40 38 37 39 39 36 32 29 26 21 16 14 12 13 11 10 10 9 7
16 11 10 13 11 9 4 3 4 5 9 14 15 20 25 30 31 32 32 34 35 37 38 37 35 36 31 29 28 25 23 19 18 15 12 12 12 10 11 11 9 8 8
20 14 11 12 10 9 5 4 3 4 4 6 10 14 15 20 25 26 26 27 26 27 26 27 25 22 22 20 17 16 15 11 10 9 10 10 11 11 12 10 9 7 7
20 17 15 14 11 10 9 7 6 6 4 4 5 6 7 7 10 13 15 17 15 15 15 15 16 14 13 11 9 9 9 10 11 11 11 12 10 12 9 7 7 8 9
19 18 17 15 13 13 10 8 6 5 5 4 5 5 6 6 6 8 10 10 11 10 11 11 10 9 8 8 7 8 9 9 11 12 12 13 10 12 9 6 9 11 8
17 15 16 16 14 12 10 9 10 8 6 5 4 6 5 6 5 5 5 6 7 6 5 4 3 6 9 8 7 8 8 9 10 10 11 12 12 10 10 11 11 8 4
17 15 15 14 16 14 10 10 11 13 14 11 6 7 8 8 7 4 1 4 6 6 5 6 5 4 6 5 8 11 9 9 7 5 14 12 12 11 12 12 10 7 4
20 16 14 13 19 20 18 14 15 15 17 16 13 11 8 8 8 8 5 3 5 7 5 8 7 4 4 4 5 8 11 9 8 11 13 13 12 12 12 10 9 6 4
Wind_Direction
219 222 225 224 226 228 229 232 239 243 239 236 239 238 237 236 233 240 247 248 250 252 245 245 245 248 245 254 265 254 267 279 277 279 278 275 286 265 248 254 272 284 274
222 226 228 230 230 233 234 236 239 243 244 246 244 242 240 242 238 247 247 248 249 252 248 248 249 256 256 257 263 264 262 270 274 271 266 273 274 253 244 249 250 278 269
226 229 233 234 234 235 236 237 239 241 242 245 247 248 244 242 246 251 250 251 255 257 254 257 257 258 259 257 259 261 258 258 264 268 270 258 243 244 234 228 253 261 265
228 230 234 244 244 245 243 243 245 248 251 251 252 252 251 251 254 254 255 257 258 259 260 257 258 261 257 254 252 258 258 258 261 258 258 243 237 223 231 243 250 253 244
226 237 238 251 251 249 252 256 246 231 240 249 257 257 253 252 253 256 258 260 260 259 258 257 255 258 257 255 256 258 258 262 259 254 242 238 230 227 240 242 241 236 222
226 229 248 250 252 255 255 259 258 255 257 247 243 258 252 251 252 252 254 254 254 257 259 260 256 256 254 255 256 261 261 262 257 252 236 237 236 229 226 237 236 216 207
224 233 235 234 239 243 254 260 260 256 249 252 260 256 256 257 255 254 253 257 258 255 256 260 262 254 251 254 253 254 257 258 256 250 245 242 230 233 237 231 221 227 228
205 216 228 233 239 249 256 262 267 265 258 251 255 257 259 255 252 252 255 252 270 259 256 254 257 253 252 253 253 253 254 258 254 246 243 241 239 237 232 229 229 221 215
209 216 223 237 250 266 275 275 275 273 272 271 267 264 258 256 256 256 253 255 262 258 256 256 254 255 254 251 250 252 253 254 251 244 238 238 237 231 228 227 212 202 184
209 220 241 258 276 282 284 286 287 284 281 276 272 269 267 265 258 254 254 249 253 258 257 254 254 255 255 255 253 248 250 251 252 242 233 228 222 220 214 193 188 176 174
206 236 262 274 277 288 300 305 306 302 296 290 282 273 267 264 260 256 252 251 252 256 257 253 252 251 251 253 253 250 252 256 252 237 226 214 206 191 179 172 171 178 175
223 242 263 249 269 313 335 344 345 337 327 313 297 285 277 271 263 256 253 250 249 247 251 258 257 258 254 252 255 251 252 250 247 221 214 194 179 172 165 153 149 148 149
221 229 199 174 79 36 25 12 4 359 348 342 330 316 304 293 283 263 251 250 247 244 243 251 259 256 252 252 251 249 248 250 248 204 208 176 166 155 138 128 133 150 140
222 187 167 138 80 53 30 19 16 16 15 12 4 349 333 311 290 263 247 249 243 242 232 237 249 250 247 246 240 231 226 220 201 181 163 143 138 139 149 142 120 130 133
182 165 154 124 77 54 41 29 28 22 17 13 12 10 7 350 304 257 242 243 244 232 218 225 235 223 223 215 197 196 195 185 165 146 139 144 143 138 102 112 143 153 151
174 164 157 130 97 68 50 41 40 35 26 18 14 8 10 6 355 280 247 244 227 234 212 203 196 198 196 185 182 167 157 151 147 141 131 120 108 108 123 137 143 152 145
182 167 164 152 118 86 64 54 56 52 49 43 30 27 19 15 24 51 105 154 165 191 197 169 167 159 151 151 147 139 130 128 126 117 112 100 96 101 144 166 165 160 142
185 184 182 167 143 109 82 70 66 58 56 52 51 45 36 33 52 101 122 133 127 132 130 144 139 138 134 130 126 123 124 126 130 129 118 111 138 149 155 159 158 158 186
195 201 199 189 174 156 115 79 84 71 60 59 59 61 56 58 73 100 115 109 106 109 114 115 120 122 126 128 128 129 131 133 126 116 116 141 161 178 182 176 161 162 174
206 214 211 201 200 201 199 158 116 99 73 67 65 69 70 70 69 76 87 96 101 103 103 105 103 103 106 107 107 110 114 112 116 136 154 175 179 184 188 173 177 176 180
208 215 214 207 212 214 209 195 147 131 139 98 84 81 70 71 76 77 74 79 85 84 84 94 100 104 108 108 108 107 115 131 148 162 172 181 198 193 178 176 178 193 184
217 223 221 210 206 193 160 149 137 118 130 131 138 105 93 91 88 91 99 100 95 90 90 95 101 100 97 101 106 123 148 163 162 165 177 179 178 175 182 184 186 184 176
218 222 209 197 191 181 178 176 177 146 123 152 173 147 125 108 115 121 123 118 117 119 114 111 112 124 139 149 163 159 158 152 166 180 178 169 162 181 189 189 188 173 176
197 188 183 184 190 193 200 204 219 223 208 190 196 205 175 149 151 146 138 137 136 134 130 135 167 200 204 202 192 180 177 178 181 195 192 182 181 185 190 189 193 204 207
193 193 198 209 218 217 213 213 221 234 241 224 210 208 192 179 180 176 190 218 222 215 208 196 203 166 139 158 183 192 190 194 208 235 206 206 201 202 211 200 207 212 237
211 220 228 245 248 242 229 220 222 233 239 232 226 220 209 204 202 207 206 210 191 190 185 192 194 181 193 200 207 206 216 221 232 211 205 207 203 198 194 206 213 227 235